Content
SEND FEEDBACK

Daily
Averages
Monthly
Summary
Turkey

KILIS, TURKEY


Home > Middle East > Turkey
Elevation: 2093 feet     Latitude: 36 06N     Longitude: 037 24E

WEATHER
 
SELECT A DAY
Number of Records: 212,942;   Date Range: 7/1/96 - 10/22/14
 
SHARE

PRINT THIS DATA

[ ← Previous Day ]
WEATHER ALMANAC - MARCH 4, 2013
[ Next Day → ]
[ °C ]   °F
Weather ElementAverageHighLow
Temperature49 °F57.2 °F (12:12 pm)41 °F (6:20 am)
Dewpoint40.5 °F44.6 °F (1:50 pm)37 °F (2:00 am)
Humidity72.7 %87 % (5:20 am)53 % (2:00 pm)
Barometer29.78 in29.86 in (8:00 pm)29.71 in (3:50 am)
Wind Speed9.7 mph20.7 mph (12:12 pm)
Weather ElementAverage
Visibility6.1 mi
Wind DirectionSSW (216.8 °)

Weather ElementTotal
Precipitation---
Heating Degree Days15.9 (Base 65)
Averaged from 53 records on March 4, 2013
WEATHER CONDITIONS BREAKOUT
WIND DIRECTION BREAKOUT
WEATHER BY HOUR - MARCH 4, 2013
[ °C ]   °F
Local TimeTemperatureDewpointHumidityBarometerVisibilityWind DirectionWind SpeedGust SpeedPrecipitationEventsConditions
12:50 AM46.4 °F37.4 °F71 %29.80 in6.2 miNNE (20°)10.4 mphMostly Cloudy
1:20 AM46.4 °F37.4 °F71 %29.77 in6.2 miNorth (360°)6.9 mphMostly Cloudy
1:50 AM46.4 °F37.4 °F71 %29.77 in6.2 miNorth (350°)6.9 mphMostly Cloudy
2:00 AM46.0 °F37.0 °F63 %29.78 in6.0 miNorth (350°)6.9 mphPartly Cloudy
2:20 AM44.6 °F37.4 °F76 %29.77 in6.2 miVariable1.2 mphMostly Cloudy
2:50 AM46.4 °F37.4 °F71 %29.74 in6.2 miNNE (20°)5.8 mphMostly Cloudy
3:20 AM46.4 °F37.4 °F71 %29.74 in6.2 miNW (320°)3.5 mphMostly Cloudy
3:50 AM46.4 °F37.4 °F71 %29.71 in6.2 miCalmMostly Cloudy
4:20 AM46.4 °F37.4 °F71 %29.71 in6.2 miNW (320°)5.8 mphMostly Cloudy
4:50 AM44.6 °F39.2 °F81 %29.74 in6.2 miWSW (250°)3.5 mphMostly Cloudy
5:20 AM42.8 °F39.2 °F87 %29.74 in6.2 miCalmMostly Cloudy
5:50 AM42.8 °F39.2 °F87 %29.74 in6.2 miVariable1.2 mphMostly Cloudy
6:20 AM41.0 °F37.4 °F87 %29.74 in6.2 miCalmMostly Cloudy
6:50 AM41.0 °F37.4 °F87 %29.74 in6.2 miCalmMostly Cloudy
7:20 AM44.6 °F39.2 °F81 %29.74 in6.2 miCalmMostly Cloudy
7:50 AM46.4 °F41.0 °F81 %29.77 in6.2 miVariable2.3 mphMostly Cloudy
8:00 AM47.0 °F41.0 °F72 %29.77 in6.0 miWSW (240°)2.3 mphPartly Cloudy
8:20 AM50.0 °F41.0 °F71 %29.77 in6.2 miWSW (240°)13.8 mphMostly Cloudy
8:50 AM50.0 °F41.0 °F71 %29.77 in6.2 miWSW (250°)17.3 mphMostly Cloudy
9:20 AM53.6 °F41.0 °F62 %29.77 in6.2 miWest (260°)15.0 mphMostly Cloudy
9:50 AM53.6 °F41.0 °F62 %29.77 in6.2 miWSW (250°)17.3 mphMostly Cloudy
10:20 AM55.4 °F42.8 °F63 %29.77 in6.2 miWSW (250°)18.4 mphMostly Cloudy
10:50 AM55.4 °F39.2 °F54 %29.77 in6.2 miWSW (240°)19.6 mphMostly Cloudy
11:20 AM55.4 °F41.0 °F58 %29.77 in6.2 miWSW (240°)18.4 mphMostly Cloudy
11:50 AM55.4 °F42.8 °F63 %29.74 in6.2 miWSW (240°)17.3 mphMostly Cloudy
12:12 PM57.2 °F41.0 °F55 %29.74 in6.2 miWSW (240°)20.7 mphRainLight Rain Showers
12:20 PM55.4 °F42.8 °F63 %29.74 in6.2 miWSW (250°)20.7 mphMostly Cloudy
12:50 PM51.8 °F42.8 °F71 %29.74 in6.2 miWest (270°)13.8 mphMostly Cloudy
1:20 PM55.4 °F42.8 °F63 %29.74 in6.2 miWNW (290°)16.1 mphMostly Cloudy
1:50 PM57.2 °F44.6 °F63 %29.74 in6.2 miWest (270°)13.8 mphMostly Cloudy
2:00 PM57.0 °F44.0 °F53 %29.74 in6.0 miWest (270°)13.8 mphPartly Cloudy
2:20 PM57.2 °F41.0 °F55 %29.74 in6.2 miWest (260°)19.6 mphMostly Cloudy
2:50 PM57.2 °F42.8 °F59 %29.74 in6.2 miWest (270°)18.4 mphMostly Cloudy
3:20 PM57.2 °F41.0 °F55 %29.77 in6.2 miWSW (250°)17.3 mphMostly Cloudy
3:50 PM53.6 °F41.0 °F62 %29.77 in6.2 miWest (280°)13.8 mphMostly Cloudy
4:09 PM53.6 °F42.8 °F67 %29.77 in2.5 miWest (270°)10.4 mphRain-ThunderstormLight Thunderstorms and Rain
4:20 PM51.8 °F42.8 °F71 %29.77 in6.2 miWest (280°)13.8 mphRainLight Rain Showers
4:50 PM50.0 °F44.6 °F82 %29.80 in6.2 miWest (260°)10.4 mphRainLight Rain Showers
5:20 PM50.0 °F42.8 °F76 %29.80 in6.2 miWest (260°)10.4 mphRainLight Rain Showers
5:50 PM48.2 °F42.8 °F82 %29.80 in6.2 miWSW (240°)6.9 mphMostly Cloudy
6:20 PM46.4 °F41.0 °F81 %29.80 in6.2 miWest (260°)6.9 mphMostly Cloudy
6:50 PM48.2 °F41.0 °F76 %29.80 in6.2 miWest (280°)10.4 mphScattered Clouds
7:20 PM46.4 °F41.0 °F81 %29.83 inWSW (250°)4.6 mphClear
7:50 PM44.6 °F39.2 °F81 %29.83 inWSW (240°)4.6 mphClear
8:00 PM44.0 °F40.0 °F79 %29.86 in6.0 miWSW (240°)4.6 mphPartly Cloudy
8:20 PM44.6 °F41.0 °F87 %29.83 inWest (280°)6.9 mphClear
8:50 PM44.6 °F41.0 °F87 %29.83 inWest (260°)9.2 mphClear
9:20 PM44.6 °F41.0 °F87 %29.86 inSW (230°)6.9 mphClear
9:50 PM44.6 °F41.0 °F87 %29.83 inWSW (240°)6.9 mphClear
10:20 PM44.6 °F41.0 °F87 %29.83 inWSW (250°)6.9 mphClear
10:50 PM46.4 °F41.0 °F81 %29.83 in6.2 miWest (270°)10.4 mphScattered Clouds
11:20 PM46.4 °F41.0 °F81 %29.86 in6.2 miWest (270°)8.1 mphMostly Cloudy
11:50 PM46.4 °F39.2 °F76 %29.83 in6.2 miWest (260°)12.7 mphMostly Cloudy
Hourly data recorded from LTAJ, located miles away from Kilis, Turkey







STORIES FROM OUR PARTNERS